Regional Weather Roundup
Issued by NWS

Home | Current Version | Previous Version | Graphics & Text | Print | Product List | Glossary On
Versions: 1 2 3 4 5 6 7 8 9 10 11 12 13 14 15 16 17 18 19 20 21 22 23 24 25 26 27 28 29 30 31 32 33 34 35 36 37 38 39 40 41 42 43 44 45 46 47 48 49 50
000
ASUS43 KLMK 271502
RWRKY
KENTUCKY REGIONAL WEATHER ROUNDUP
NATIONAL WEATHER SERVICE LOUISVILLE KY
1100 AM EDT THU APR 27 2017

NOTE "FAIR" INDICATES FEW OR NO CLOUDS BELOW 12,000 FEET
WITH NO SIGNIFICANT WEATHER AND/OR OBSTRUCTIONS TO VISIBILITY.

KYZ001>023-026-027-061>063-070>075-271600-
WESTERN AND SOUTH CENTRAL KENTUCKY

CITY           SKY/WX    TMP DP  RH WIND       PRES   REMARKS
PADUCAH        CLOUDY    53  45  74 W12       29.76R
HENDERSON      CLOUDY    53  48  83 W12       29.74R
OWENSBORO      CLOUDY    53  47  79 W15G21    29.74R
HOPKINSVILLE   CLOUDY    54  50  85 W13       29.76R
BOWLING GREEN  CLOUDY    64  57  78 W14G21    29.72R
GLASGOW        NOT AVBL
$$

KYZ024-025-028>034-038-045-046-053-271600-
NORTH CENTRAL KENTUCKY

CITY           SKY/WX    TMP DP  RH WIND       PRES   REMARKS
LOUISVILLE/SDF PTSUNNY   66  58  75 W22G28    29.65R
LOUISVILLE/LOU PTSUNNY   67  60  78 SW15G22   29.64R
FORT KNOX      CLOUDY    61  56  84 W14G30    29.67R
$$

KYZ035>037-039>044-047>052-055>060-089>105-271600-
NORTHEAST KENTUCKY

CITY           SKY/WX    TMP DP  RH WIND       PRES   REMARKS
LEXINGTON      LGT RAIN  65  56  72 SW16G26   29.67R
COVINGTON      LGT RAIN  62  60  93 SW10      29.62R
FRANKFORT      CLOUDY    67  57  70 SW15G24   29.65R
$$

KYZ054-064>069-076>088-106>120-271600-
SOUTHEAST KENTUCKY

CITY           SKY/WX    TMP DP  RH WIND       PRES   REMARKS
JACKSON        CLOUDY    65  58  78 VRB3      29.72R
LONDON         CLOUDY    64  57  78 S13G21    29.72R
SOMERSET       PTSUNNY   68  59  73 SW10G21   29.72R
MIDDLESBORO    RAIN      61  60  95 S6        29.77S
MONTICELLO     PTSUNNY   68  60  75 W24G31    29.73R
$$





USA.gov is the U.S. government's official web portal to all federal, state and local government web resources and services.